Regional Weather Roundup
Issued by NWS

Home | Current Version | Previous Version | Graphics & Text | Print | Product List | Glossary On
Versions: 1 2 3 4 5 6 7 8 9 10 11 12 13 14 15 16 17 18 19 20 21 22 23 24 25 26 27
000
ASUS45 KBOI 201410
RWRID
WEATHER ROUNDUP FOR IDAHO
NATIONAL WEATHER SERVICE BOISE ID
800 AM MDT SUN APR 20 2014

NOTE: "FAIR" INDICATES FEW OR NO CLOUDS BELOW 12000 FEET
WITH NO SIGNIFICANT WEATHER AND/OR OBSTRUCTIONS TO VISIBILITY

IDZ012-014-201500-
SOUTHWEST IDAHO


CITY           SKY/WX    TMP DP  RH WIND       PRES   REMARKS
BOISE          SUNNY     42  31  64 W8        30.24R
CALDWELL       SUNNY     43  28  56 NW10      30.27R
MOUNTAIN HOME  SUNNY     43  32  63 NW12      30.24R
$$

IDZ016-017-201500-
SOUTHCENTRAL IDAHO


CITY           SKY/WX    TMP DP  RH WIND       PRES   REMARKS
BURLEY         SUNNY     44  29  55 W18G26    30.19R
JEROME         SUNNY     42  31  64 SW13G22   30.20R
TWIN FALLS     SUNNY     45  28  51 S16G24    30.22R
$$

IDZ019>023-201500-
SOUTHEAST IDAHO


CITY           SKY/WX    TMP DP  RH WIND       PRES   REMARKS
IDAHO FALLS    MOSUNNY   46  28  49 SW23G31   30.12R
POCATELLO      MOSUNNY   46  26  45 SW17      30.18R
REXBURG        MOSUNNY   45  28  51 SW15G24   30.11R
$$

IDZ006-010-011-018-031-032-201500-
CENTRAL IDAHO MOUNTAINS


CITY           SKY/WX    TMP DP  RH WIND       PRES   REMARKS
MCCALL         SUNNY     34  24  67 N3        30.20R
HAILEY         MOSUNNY   36  25  64 CALM      30.15R
STANLEY          N/A     26  22  84 E3        30.20R
SALMON         SUNNY     39  27  60 CALM      30.18R
CHALLIS        SUNNY     44  25  47 N7        30.17R
$$

IDZ002-004-006-007-026-201500-
NORTHERN IDAHO


CITY           SKY/WX    TMP DP  RH WIND       PRES   REMARKS
LEWISTON       SUNNY     45  29  53 S6        30.27R
LOWELL           N/A     41  39  93 N3        30.31R
COEUR D`ALENE  MOSUNNY   37  32  81 S6        30.25R WCI  33
MULLAN PASS    CLOUDY    27  23  85 W8        30.15R WCI  19
$$



USA.gov is the U.S. government's official web portal to all federal, state and local government web resources and services.